Location: Écuvilly
(49.6505°N, 2.9206°E)
Time: 14:10:25
(UTC+00:00)

ARIANE 5 R/B - Visible Passes

Search period start: 09 February 2026 00:00
Search period end: 19 February 2026 00:00
Orbit: 746 x 793 km, 98.8° (Epoch: 9 February)

Date Brightness Start Highest point End Pass type
(mag) Time Alt. Az. Time Alt. Az. Time Alt. Az.
9 Feb 5.9 05:07:25 10° ENE 05:09:22 12° E 05:11:20 10° ESE visible
9 Feb 3.8 18:03:52 10° S 18:08:46 44° W 18:13:38 10° NNW visible
10 Feb 4.0 06:08:46 10° NNE 06:13:30 41° E 06:18:12 10° S visible
10 Feb 2.6 17:27:56 10° SSE 17:33:04 87° WSW 17:38:11 10° NNW visible
10 Feb 5.8 19:10:21 10° WSW 19:12:50 13° W 19:15:19 10° WNW visible
11 Feb 5.3 05:33:50 10° NE 05:37:36 21° E 05:41:20 10° SE visible
11 Feb 4.8 18:32:32 10° SSW 18:36:49 26° W 18:41:05 10° NW visible
12 Feb 6.1 05:01:13 10° E 05:01:29 10° E 05:01:45 10° E visible
12 Feb 3.5 17:56:00 10° S 18:00:59 52° W 18:05:56 10° NNW visible
13 Feb 4.3 06:01:07 10° NNE 06:05:41 35° E 06:10:14 10° SSE visible
13 Feb 5.6 19:01:55 10° SW 19:04:58 16° W 19:08:01 10° NW visible
14 Feb 5.5 05:26:21 10° NE 05:29:44 18° E 05:33:06 10° SE visible
14 Feb 4.6 18:24:30 10° SSW 18:28:59 31° W 18:33:27 10° NNW visible
15 Feb 3.2 17:48:09 10° S 17:53:11 61° WSW 17:58:12 10° NNW visible
16 Feb 4.7 05:53:28 10° NE 05:57:51 30° E 06:02:13 10° SSE visible
16 Feb 5.4 18:53:38 10° SW 18:57:07 18° W 19:00:35 10° NW visible
17 Feb 5.7 05:18:57 10° NE 05:21:51 15° E 05:24:45 10° SE visible
17 Feb 4.3 18:16:31 10° SSW 18:21:10 36° W 18:25:48 10° NNW visible
18 Feb 2.9 17:40:21 10° S 17:45:25 71° WSW 17:50:27 10° NNW visible
18 Feb 6.1 19:24:32 10° W 19:25:21 10° W 19:26:09 10° WNW visible
